NWA1946 KMSP-KMKE

Flight info

Callsign NWA1946
Flight time 0h 44m
Altitude 33000
Route ZMBRO7 ODI DLL BAE
Aircraft MD82/M-SDFGIJ1RWY/S

Departure

Time 2026-04-26 16:38
Airport Minneapolis–Saint Paul International Airport / Wold–Chamberlain Field (KMSP)

Arrival

Time 2026-04-26 17:22
Airport General Mitchell International Airport (KMKE)
Time Latitude Longitude Altitude Speed Heading
2026-04-26 16:11 44.88584 -93.21113 826 ft 0 kts 143°
2026-04-26 16:32 44.88590 -93.21119 826 ft 5 kts 143°
2026-04-26 16:32 44.88607 -93.21137 822 ft 1 kts 143°
2026-04-26 16:32 44.88620 -93.21151 822 ft 7 kts 143°
2026-04-26 16:33 44.88624 -93.21155 824 ft 0 kts 141°
2026-04-26 16:33 44.88624 -93.21153 824 ft 1 kts 130°
2026-04-26 16:33 44.88632 -93.21120 826 ft 7 kts 30°
2026-04-26 16:33 44.88688 -93.21093 826 ft 9 kts
2026-04-26 16:34 44.88741 -93.21128 826 ft 9 kts 314°
2026-04-26 16:34 44.88778 -93.21202 824 ft 9 kts 301°
2026-04-26 16:34 44.88814 -93.21285 823 ft 10 kts 302°
2026-04-26 16:34 44.88853 -93.21373 825 ft 11 kts 302°
2026-04-26 16:35 44.88892 -93.21464 826 ft 11 kts 301°
2026-04-26 16:35 44.88941 -93.21579 825 ft 16 kts 301°
2026-04-26 16:35 44.88964 -93.21633 824 ft 0 kts 301°
2026-04-26 16:35 44.88977 -93.21663 825 ft 9 kts 301°
2026-04-26 16:36 44.89023 -93.21769 824 ft 17 kts 301°
2026-04-26 16:36 44.89089 -93.21921 825 ft 18 kts 301°
2026-04-26 16:36 44.89152 -93.22066 826 ft 12 kts 301°
2026-04-26 16:36 44.89199 -93.22144 826 ft 10 kts 338°
2026-04-26 16:37 44.89255 -93.22119 825 ft 8 kts 32°
2026-04-26 16:37 44.89279 -93.22069 826 ft 6 kts 101°
2026-04-26 16:37 44.89249 -93.21992 825 ft 17 kts 121°
2026-04-26 16:37 44.89188 -93.21854 822 ft 34 kts 122°
2026-04-26 16:38 44.88842 -93.21051 827 ft 113 kts 121°
2026-04-26 16:38 44.88329 -93.19879 860 ft 163 kts 121°
2026-04-26 16:38 44.87691 -93.18531 1568 ft 161 kts 119°
2026-04-26 16:38 44.87082 -93.17237 2500 ft 155 kts 121°
2026-04-26 16:39 44.86550 -93.16119 3260 ft 151 kts 126°
2026-04-26 16:39 44.85854 -93.14968 3673 ft 166 kts 143°
2026-04-26 16:39 44.84871 -93.13910 3948 ft 192 kts 147°
2026-04-26 16:39 44.83698 -93.12721 4164 ft 222 kts 147°
2026-04-26 16:40 44.82380 -93.11373 4515 ft 245 kts 147°
2026-04-26 16:40 44.80962 -93.09913 5009 ft 258 kts 147°
2026-04-26 16:40 44.79520 -93.08418 5804 ft 257 kts 147°
2026-04-26 16:40 44.78069 -93.06904 6539 ft 262 kts 147°
2026-04-26 16:41 44.76606 -93.05362 7270 ft 264 kts 146°
2026-04-26 16:41 44.75123 -93.03790 7937 ft 270 kts 146°
2026-04-26 16:41 44.73617 -93.02186 8661 ft 273 kts 146°
2026-04-26 16:41 44.72096 -93.00557 9357 ft 278 kts 146°
2026-04-26 16:42 44.70552 -92.98893 10044 ft 282 kts 146°
2026-04-26 16:42 44.68943 -92.97164 10285 ft 303 kts 146°
2026-04-26 16:42 44.67211 -92.95307 10438 ft 323 kts 146°
2026-04-26 16:42 44.65376 -92.93340 10661 ft 339 kts 145°
2026-04-26 16:43 44.63488 -92.91310 11197 ft 344 kts 146°
2026-04-26 16:43 44.61587 -92.89262 11846 ft 345 kts 146°
2026-04-26 16:43 44.59675 -92.87201 12479 ft 348 kts 146°
2026-04-26 16:43 44.57738 -92.85120 13139 ft 353 kts 146°
2026-04-26 16:44 44.55808 -92.83049 13772 ft 356 kts 147°
2026-04-26 16:44 44.53825 -92.80933 14272 ft 360 kts 147°
2026-04-26 16:44 44.51824 -92.78805 14797 ft 363 kts 147°
2026-04-26 16:44 44.49801 -92.76664 15318 ft 366 kts 147°
2026-04-26 16:45 44.47753 -92.74502 15835 ft 372 kts 147°
2026-04-26 16:45 44.45790 -92.72104 16388 ft 381 kts 133°
2026-04-26 16:45 44.44276 -92.69018 16990 ft 388 kts 125°
2026-04-26 16:45 44.42907 -92.65731 17462 ft 394 kts 123°
2026-04-26 16:46 44.41988 -92.63473 17802 ft 396 kts 123°
2026-04-26 16:46 44.40624 -92.60109 18349 ft 399 kts 123°
2026-04-26 16:46 44.39263 -92.56768 18774 ft 403 kts 123°
2026-04-26 16:46 44.37852 -92.53356 19162 ft 408 kts 124°
2026-04-26 16:47 44.36408 -92.49921 19582 ft 412 kts 124°
2026-04-26 16:47 44.34935 -92.46467 19996 ft 416 kts 124°
2026-04-26 16:47 44.33438 -92.42987 20406 ft 420 kts 125°
2026-04-26 16:47 44.31914 -92.39478 20798 ft 425 kts 125°
2026-04-26 16:48 44.30369 -92.35938 21232 ft 429 kts 125°
2026-04-26 16:48 44.28811 -92.32369 21651 ft 433 kts 125°
2026-04-26 16:48 44.27236 -92.28761 22005 ft 438 kts 125°
2026-04-26 16:48 44.25649 -92.25118 22450 ft 441 kts 125°
2026-04-26 16:49 44.24053 -92.21445 22893 ft 444 kts 125°
2026-04-26 16:49 44.22444 -92.17742 23252 ft 449 kts 124°
2026-04-26 16:49 44.20817 -92.13997 23620 ft 454 kts 124°
2026-04-26 16:49 44.19176 -92.10222 23958 ft 457 kts 124°
2026-04-26 16:50 44.17528 -92.06429 24351 ft 458 kts 124°
2026-04-26 16:50 44.15876 -92.02624 24740 ft 460 kts 124°
2026-04-26 16:50 44.14217 -91.98806 25113 ft 463 kts 124°
2026-04-26 16:50 44.12545 -91.94968 25486 ft 464 kts 125°
2026-04-26 16:51 44.10854 -91.91131 25879 ft 466 kts 126°
2026-04-26 16:51 44.09135 -91.87299 26254 ft 468 kts 126°
2026-04-26 16:51 44.07409 -91.83454 26651 ft 469 kts 126°
2026-04-26 16:51 44.05686 -91.79587 26969 ft 472 kts 125°
2026-04-26 16:52 44.03959 -91.75679 27293 ft 475 kts 125°
2026-04-26 16:52 44.02815 -91.73079 27555 ft 476 kts 125°
2026-04-26 16:52 44.00506 -91.67812 28078 ft 479 kts 125°
2026-04-26 16:52 43.98771 -91.63852 28408 ft 481 kts 125°
2026-04-26 16:53 43.97026 -91.59874 28728 ft 483 kts 125°
2026-04-26 16:53 43.95278 -91.55892 29216 ft 482 kts 126°
2026-04-26 16:53 43.93536 -91.51932 29771 ft 480 kts 126°
2026-04-26 16:53 43.91808 -91.47986 30284 ft 478 kts 123°
2026-04-26 16:54 43.90451 -91.43747 30642 ft 484 kts 111°
2026-04-26 16:54 43.89480 -91.39268 30999 ft 486 kts 108°
2026-04-26 16:54 43.88614 -91.34735 31317 ft 487 kts 107°
2026-04-26 16:54 43.87760 -91.30188 31666 ft 487 kts 107°
2026-04-26 16:55 43.86895 -91.25662 32033 ft 486 kts 108°
2026-04-26 16:55 43.86005 -91.21153 32391 ft 485 kts 108°
2026-04-26 16:55 43.85092 -91.16662 32724 ft 484 kts 109°
2026-04-26 16:55 43.84161 -91.12175 32928 ft 486 kts 109°
2026-04-26 16:56 43.82270 -91.03144 33040 ft 487 kts 109°
2026-04-26 16:56 43.81336 -90.98660 33065 ft 482 kts 109°
2026-04-26 16:57 43.79500 -90.89792 33081 ft 477 kts 109°
2026-04-26 16:57 43.76698 -90.76560 33091 ft 479 kts 109°
2026-04-26 16:58 43.75125 -90.69208 33088 ft 480 kts 109°
2026-04-26 16:59 43.71987 -90.54415 33089 ft 479 kts 109°
2026-04-26 17:00 43.68247 -90.36768 33093 ft 479 kts 109°
2026-04-26 17:00 43.65398 -90.23617 33098 ft 479 kts 109°
2026-04-26 17:01 43.63483 -90.14877 33100 ft 480 kts 109°
2026-04-26 17:01 43.61560 -90.06057 33094 ft 479 kts 109°
2026-04-26 17:02 43.59650 -89.97278 33091 ft 477 kts 109°
2026-04-26 17:02 43.57739 -89.88509 33128 ft 478 kts 109°
2026-04-26 17:03 43.55826 -89.79712 33129 ft 479 kts 108°
2026-04-26 17:03 43.53677 -89.71027 33128 ft 478 kts 114°
2026-04-26 17:04 43.51155 -89.62539 32876 ft 484 kts 115°
2026-04-26 17:04 43.49864 -89.58221 32290 ft 489 kts 115°
2026-04-26 17:04 43.48593 -89.53899 31634 ft 486 kts 114°
2026-04-26 17:05 43.47345 -89.49591 30897 ft 483 kts 114°
2026-04-26 17:05 43.46114 -89.45298 30122 ft 481 kts 114°
2026-04-26 17:05 43.44891 -89.41015 29225 ft 480 kts 114°
2026-04-26 17:05 43.43670 -89.36751 28392 ft 478 kts 114°
2026-04-26 17:06 43.42455 -89.32518 27585 ft 474 kts 114°
2026-04-26 17:06 43.41246 -89.28319 26829 ft 470 kts 114°
2026-04-26 17:06 43.40045 -89.24153 26077 ft 467 kts 114°
2026-04-26 17:06 43.38850 -89.20018 25327 ft 462 kts 114°
2026-04-26 17:07 43.37668 -89.15976 24536 ft 451 kts 114°
2026-04-26 17:07 43.36503 -89.12020 23765 ft 441 kts 114°
2026-04-26 17:07 43.35363 -89.08152 22923 ft 432 kts 114°
2026-04-26 17:07 43.34250 -89.04373 22149 ft 422 kts 114°
2026-04-26 17:08 43.33167 -89.00683 21420 ft 411 kts 114°
2026-04-26 17:08 43.32110 -88.97083 20739 ft 401 kts 115°
2026-04-26 17:08 43.31070 -88.93544 20104 ft 399 kts 115°
2026-04-26 17:08 43.30047 -88.90070 19489 ft 397 kts 115°
2026-04-26 17:09 43.29017 -88.86568 18844 ft 395 kts 115°
2026-04-26 17:09 43.28323 -88.84212 18399 ft 393 kts 115°
2026-04-26 17:09 43.26975 -88.79624 17470 ft 389 kts 115°
2026-04-26 17:09 43.25964 -88.76195 16830 ft 385 kts 115°
2026-04-26 17:10 43.24965 -88.72811 16212 ft 380 kts 115°
2026-04-26 17:10 43.23979 -88.69471 15599 ft 375 kts 115°
2026-04-26 17:10 43.22980 -88.66187 15000 ft 371 kts 116°
2026-04-26 17:10 43.21971 -88.62954 14395 ft 367 kts 116°
2026-04-26 17:11 43.20976 -88.59755 13762 ft 363 kts 116°
2026-04-26 17:11 43.20003 -88.56581 13099 ft 359 kts 115°
2026-04-26 17:11 43.19055 -88.53443 12500 ft 354 kts 115°
2026-04-26 17:11 43.18134 -88.50348 11923 ft 348 kts 114°
2026-04-26 17:12 43.16352 -88.44302 10834 ft 336 kts 114°
2026-04-26 17:12 43.15489 -88.41372 10497 ft 325 kts 114°
2026-04-26 17:13 43.13894 -88.35917 10204 ft 293 kts 114°
2026-04-26 17:13 43.13152 -88.33385 10052 ft 280 kts 114°
2026-04-26 17:13 43.11495 -88.28896 9597 ft 254 kts 141°
2026-04-26 17:14 43.09992 -88.27790 9373 ft 243 kts 161°
2026-04-26 17:14 43.06650 -88.26460 8756 ft 258 kts 165°
2026-04-26 17:14 43.04908 -88.25832 8416 ft 259 kts 165°
2026-04-26 17:15 43.01440 -88.24627 7693 ft 255 kts 165°
2026-04-26 17:15 42.99731 -88.24014 7330 ft 253 kts 165°
2026-04-26 17:15 42.98060 -88.23399 6984 ft 242 kts 164°
2026-04-26 17:16 42.96472 -88.22805 6593 ft 233 kts 164°
2026-04-26 17:16 42.94912 -88.22216 5994 ft 233 kts 163°
2026-04-26 17:16 42.93354 -88.21624 5363 ft 232 kts 163°
2026-04-26 17:16 42.91802 -88.21036 4731 ft 231 kts 163°
2026-04-26 17:17 42.90255 -88.20456 4105 ft 230 kts 162°
2026-04-26 17:17 42.88850 -88.19492 3473 ft 226 kts 134°
2026-04-26 17:17 42.88136 -88.17666 3048 ft 216 kts 98°
2026-04-26 17:17 42.88248 -88.15663 2866 ft 211 kts 79°
2026-04-26 17:18 42.88589 -88.13744 2775 ft 204 kts 77°
2026-04-26 17:18 42.88966 -88.11955 2745 ft 191 kts 75°
2026-04-26 17:18 42.89385 -88.10219 2718 ft 194 kts 73°
2026-04-26 17:18 42.89824 -88.08473 2699 ft 194 kts 73°
2026-04-26 17:19 42.90664 -88.05070 2677 ft 176 kts 73°
2026-04-26 17:19 42.91022 -88.03614 2656 ft 151 kts 73°
2026-04-26 17:19 42.91351 -88.02267 2373 ft 145 kts 74°
2026-04-26 17:20 42.91657 -88.01034 2207 ft 129 kts 75°
2026-04-26 17:20 42.91751 -88.00641 2149 ft 130 kts 75°
2026-04-26 17:20 42.92217 -87.98701 1877 ft 129 kts 75°
2026-04-26 17:20 42.92502 -87.97518 1702 ft 130 kts 74°
2026-04-26 17:21 42.92784 -87.96369 1501 ft 129 kts 75°
2026-04-26 17:21 42.93065 -87.95231 1314 ft 126 kts 76°
2026-04-26 17:21 42.93340 -87.94097 1139 ft 126 kts 73°
2026-04-26 17:21 42.93629 -87.92920 930 ft 136 kts 72°
2026-04-26 17:22 42.93923 -87.91719 743 ft 129 kts 71°
2026-04-26 17:22 42.94186 -87.90639 686 ft 100 kts 71°
2026-04-26 17:22 42.94325 -87.90069 686 ft 47 kts 71°
2026-04-26 17:22 42.94407 -87.89780 686 ft 28 kts 58°
2026-04-26 17:23 42.94478 -87.89689 685 ft 9 kts 29°
2026-04-26 17:23 42.94550 -87.89660 689 ft 14 kts 12°
2026-04-26 17:23 42.94655 -87.89642 686 ft 11 kts
2026-04-26 17:23 42.94737 -87.89629 683 ft 11 kts
2026-04-26 17:24 42.94814 -87.89615 686 ft 12 kts
2026-04-26 17:24 42.94893 -87.89601 689 ft 8 kts
2026-04-26 17:24 42.94946 -87.89603 689 ft 8 kts 336°
2026-04-26 17:24 42.94970 -87.89666 689 ft 8 kts 275°
2026-04-26 17:25 42.94977 -87.89752 689 ft 10 kts 284°
2026-04-26 17:25 42.94987 -87.89840 686 ft 9 kts 251°
2026-04-26 17:25 42.94960 -87.89926 687 ft 10 kts 230°
2026-04-26 17:25 42.94893 -87.89967 687 ft 11 kts 198°
2026-04-26 17:26 42.94855 -87.89962 687 ft 3 kts 121°
2026-04-26 17:26 42.94850 -87.89941 682 ft 0 kts 97°
2026-04-26 17:26 42.94849 -87.89931 681 ft 1 kts 98°
2026-04-26 17:26 42.94849 -87.89930 681 ft 0 kts 99°